STARLINK-1035 (44740 NORAD) Tracking and Keplerian Element Data

This shows tracking and keplerian element data for the satellite.

Feedback or suggestion? Click here.




ElementValue
Catalog44740
NameSTARLINK-1035
Epoch Orbit1142
Epoch Day23.25001157
Epoch Year2020
RAAN171.5319
Inclination53.0064
Eccentricity0.0001303
Argument of Perigee78.2902
Mean Anonmoly246.9193
Mean Motion15.45153863
Decay Rate-0.00045446
L11 44740U 19074AD 20023.25001157 -.00045446 00000-0 -94034-3 0 9996
L22 44740 53.0064 171.5319 0001303 78.2902 246.9193 15.45153863 11424

Live tracking and technical data element details for STARLINK-1035 (NORAD 44740). STARLINK-1035 can be tracked NOW for your location showing map with azimuth and elevation plus other details from your city location.

Track the satellite on the map from your city or location and see movement details for azimuth, elevation, latitude, longitude, range, height, and movement on the map or in text.







IsCatalogInMostPopularTable: catalog: 44740, numindb: 10
Update: records affected: 1



GetName: 44740 STARLINK-1035

Hit Count: updated at: Fri, 24 Jan 2020 10:26:30 GMT